Location: Montreal
(45.5000°N, 73.5833°W)
Time: 13:59:01
(UTC-05:00)

Envisat - Pass Details

Date: 14 October 2017
Orbit: 764 x 766 km, 98.2° (Epoch: 13 December)

Event Time Altitude Azimuth Distance (km) Brightness Sun altitude
Exits shadow 22:00:15 17° 277° (W) 1,847 5.4 -39.6°
Drops below altitude 10° 22:03:08 10° 312° (NW) 2,313 6.2 -40.0°
Sets 22:06:14 0° 331° (NNW) 3,245 7.0 -40.4°
